This is the latest recevied weather packets stored in our database for station/object AB1AU. If no packets are shown the sender has not sent any weather packets the latest 10 day(s).
| Time | Temp. | Humidity | Pressure | Rain* | Wind** | Luminosity | Snow |
|---|---|---|---|---|---|---|---|
| 1777854967 | 8.33° C | 45% | 1006.2 hPa | 0 mm | - | 0 W/m² | - |
| 1777854664 | 8.33° C | 44% | 1006 hPa | 0 mm | - | 0 W/m² | - |
| 1777854361 | 8.33° C | 45% | 1006.1 hPa | 0 mm | - | 0 W/m² | - |
| 1777854058 | 8.33° C | 45% | 1006 hPa | 0 mm | - | 0 W/m² | - |
| 1777853756 | 8.33° C | 46% | 1005.8 hPa | 0 mm | - | 0 W/m² | - |
| 1777853451 | 8.89° C | 44% | 1005.9 hPa | 0 mm | - | 0 W/m² | - |
| 1777853149 | 8.89° C | 44% | 1005.8 hPa | 0 mm | - | 0 W/m² | - |
| 1777852846 | 8.89° C | 44% | 1005.7 hPa | 0 mm | - | 0 W/m² | - |
| 1777852545 | 8.89° C | 43% | 1005.7 hPa | 0 mm | - | 1 W/m² | - |
| 1777852241 | 8.89° C | 42% | 1005.6 hPa | 0 mm | - | 1 W/m² | - |
| 1777851938 | 8.89° C | 43% | 1005.4 hPa | 0 mm | - | 2 W/m² | - |
| 1777851637 | 9.44° C | 42% | 1005.4 hPa | 0 mm | - | 3 W/m² | - |
| 1777851333 | 9.44° C | 42% | 1005.4 hPa | 0 mm | - | 4 W/m² | - |
| 1777851029 | 9.44° C | 42% | 1005.3 hPa | 0 mm | - | 5 W/m² | - |
| 1777850726 | 9.44° C | 41% | 1005.1 hPa | 0 mm | - | 7 W/m² | - |
| 1777850424 | 9.44° C | 41% | 1005.1 hPa | 0 mm | - | 8 W/m² | - |
| 1777850121 | 9.44° C | 42% | 1004.9 hPa | 0 mm | - | 10 W/m² | - |
| 1777849818 | 10° C | 42% | 1004.9 hPa | 0 mm | - | 10 W/m² | - |
| 1777849514 | 10° C | 42% | 1004.8 hPa | 0 mm | - | 13 W/m² | - |
| 1777849212 | 10° C | 44% | 1004.7 hPa | 0 mm | - | 17 W/m² | - |
| 1777848909 | 10° C | 43% | 1004.7 hPa | 0 mm | - | 21 W/m² | - |
| 1777848604 | 10.56° C | 42% | 1004.8 hPa | 0 mm | - | 26 W/m² | - |
| 1777848301 | 10.56° C | 42% | 1004.6 hPa | 0 mm | - | 28 W/m² | - |
| 1777847999 | 10.56° C | 41% | 1004.5 hPa | 0 mm | - | 30 W/m² | - |
| 1777847697 | 10.56° C | 42% | 1004.3 hPa | 0 mm | - | 33 W/m² | - |
* Rain latest hour (hover to see other rain measurements)
** Current wind speed in m/s (hover to see current wind gust speed)